Reflectivity
18 -20 -14 -18 -1 16 -18 -5 15 5 -7 3 -20 -6 -20 -20 -17 18 14 12 -7 -19 -6 -14 -5 -5 -20 -20 -20 -10 11 1 -4 -20 -20 -20 -20 -20 -20 -20 -20 -20 -20
20 -20 -20 -14 -18 27 21 -4 -10 -2 7 -20 -20 -20 -20 -19 18 6 29 30 -17 11 27 25 -7 8 -20 -20 -20 10 7 4 -17 -20 -20 -20 -20 -20 -20 -20 -20 -20 -20
3 -12 -20 -20 9 33 21 11 29 18 3 -4 -20 -9 -6 -19 3 24 -1 -3 29 -12 -10 -1 5 15 -19 -15 -20 -18 -16 0 -20 -20 -20 -20 -20 -20 -20 -19 0 5 3
-20 9 -20 -20 20 16 26 27 26 10 -1 17 19 -10 -20 -20 7 20 9 8 2 -1 19 6 -13 6 8 -15 -20 -14 -3 4 -20 -20 -20 -20 -20 -20 -14 1 6 -3 -18
11 15 -20 -15 18 11 17 33 35 16 14 -20 4 20 -2 -9 10 15 26 9 -2 -7 0 12 -11 -18 3 5 -14 -8 -20 -13 -18 -20 -20 -20 -20 -20 -3 -15 -9 -20 -20
17 -11 -9 -11 27 34 25 22 6 8 11 2 10 19 -13 -9 15 11 10 -14 -1 -20 -20 10 13 9 -20 -20 -20 -20 -20 -11 1 -9 -19 -0 -20 -19 -9 -20 -20 -20 -20
30 5 -8 -20 13 19 7 28 20 21 26 34 -13 -20 -1 6 -13 -20 -20 -20 -20 -20 -20 -3 3 -2 -2 -1 -9 -20 -20 -20 -20 -9 -1 4 4 6 -15 -20 -20 -20 -20
34 9 -14 5 7 20 1 21 -3 20 11 -11 9 -7 -12 -16 -15 -4 -16 -20 -20 -20 -20 -20 -13 -1 -18 -20 -20 -20 -20 -9 3 4 0 -10 -16 -20 -20 -20 -20 -20 -20
33 28 9 9 13 24 9 -6 -5 1 -5 22 -6 -11 -19 -19 -20 -20 -20 -20 -20 -20 -12 -1 11 10 9 4 -7 -5 5 4 1 1 -13 -20 -10 -18 -20 -20 -20 -20 -20
22 8 21 21 20 8 13 -16 7 24 15 17 15 -4 10 6 -20 -20 -20 -20 -17 -6 -3 -6 4 5 -5 10 7 1 -2 -0 -2 -8 -8 -20 -20 -20 -20 -20 -20 -20 -20
8 12 7 13 22 12 9 14 3 14 16 20 23 21 -16 -13 -20 -20 -19 -19 -7 -10 -2 7 16 17 13 7 6 6 1 -3 -2 -6 -19 -20 -20 -20 -20 -20 -20 -20 -20
-17 -2 9 14 11 14 16 17 21 19 16 3 -5 -19 -7 1 6 -2 12 -1 -2 1 7 14 11 10 11 5 -0 -5 -5 -1 -3 -18 -20 -20 -20 -20 -20 -20 -20 -20 -20
8 -9 5 12 13 13 16 14 22 14 1 -20 -20 -4 6 8 -1 12 15 12 9 12 6 12 9 7 7 8 8 7 3 -5 -20 -20 -20 -20 -20 -20 -20 -20 -20 -20 -20
-3 1 7 15 18 11 -18 -10 -5 -4 4 -7 -19 -4 -9 -20 -6 12 13 8 7 8 10 9 9 9 8 -1 -16 -20 -20 -20 -20 -20 -20 -20 -20 -20 -20 -20 -20 -20 -4
-0 -0 11 2 -2 -20 -20 -20 -20 -18 -3 -20 -15 -4 7 7 6 6 7 9 9 6 5 7 4 -6 -17 -20 -20 -20 -20 -20 -20 -20 -20 -20 -20 -20 -20 -20 -6 -2 -2
20 7 -11 -11 0 -15 -13 -13 -13 -12 -1 -3 -3 -9 -3 -1 -0 -0 -14 -13 -1 5 -3 -15 -20 -20 -20 -20 -20 -20 -20 -20 -20 -20 -20 -20 -11 -9 -20 -15 -5 -1 -2
-3 -20 -7 -20 -20 -18 -19 -15 -2 -20 -17 -20 -7 -3 -15 -8 -18 -3 5 -1 -19 -20 -20 -20 -20 -20 -20 -20 -20 -20 -20 -20 -20 -20 -20 -20 -20 -20 -5 -5 -20 -20 -20
-18 -20 -20 -20 -20 -20 -20 -20 -20 -20 -20 -20 -14 -5 -5 -7 -4 -12 -18 -20 -20 -20 -20 -20 -20 -20 -20 -20 -20 -20 -20 -20 -20 -20 -20 -20 -18 -7 -4 -20 -20 -20 -9
-20 -20 -20 -20 -20 -20 -20 -14 -11 -12 -13 -15 -19 -20 -20 -20 -20 -20 -20 -20 -20 -20 -20 -20 -20 -20 -20 -20 -20 -20 -20 -20 -20 -20 -20 -20 -15 -15 -13 -20 -6 -4 1
-20 -20 -20 -20 -20 -20 -20 -20 -20 -20 -20 -20 -20 -20 -20 -20 -20 -20 -20 -20 -20 -20 -20 -20 -20 -20 -20 -20 -20 -20 -20 -20 -20 -20 -20 -20 -20 -20 -18 -20 -10 -7 -19
-20 -20 -20 -20 -20 -20 -20 -20 -20 -20 -20 -20 -20 -20 -20 -20 -20 -20 -20 -20 -20 -20 -20 -20 -20 -20 -20 -20 -20 -20 -20 -20 -20 -20 -20 -20 -7 -4 -16 -2 -3 -20 -16
-15 -14 -20 -20 -20 -20 -20 -20 -20 -20 -20 -20 -20 -20 -20 -20 -20 -20 -20 -20 -20 -20 -20 -20 -20 -20 -20 -20 -20 -20 -20 -20 -20 -20 -15 -8 -2 -1 -3 -2 -19 -15 -11
13 8 -8 -20 -20 -20 -20 -20 -20 -20 -20 -20 -20 -19 -20 -20 -20 -20 -20 -20 -20 -20 -20 -20 -20 -20 -20 -20 -20 -20 -20 -20 -20 -20 -7 -2 -0 -10 3 -0 0 2 2
26 10 -19 -20 -20 -20 -20 -20 -20 -20 -20 -20 -20 -20 -20 -20 -20 -20 -20 -20 -20 -20 -20 -20 -20 -20 -20 -15 -20 -20 -20 -20 -20 -20 -2 4 -0 -6 6 4 4 -20 -20
-11 -20 -20 -20 -20 -20 -20 -20 -20 -20 -20 -20 -20 -20 -20 -20 -20 -13 -1 -19 -20 -19 -20 -20 -20 -20 -20 -20 -20 -20 -20 -20 -20 -20 5 -7 -15 -15 -7 -4 -7 -20 -19
-20 -20 -20 -20 -20 -20 -20 -20 -20 -20 -20 -20 -20 -20 -20 -17 -15 -17 -20 -20 -20 -20 -20 -20 -20 -18 -20 -20 -20 -20 -20 -12 -13 6 -5 -5 -8 -4 -1 2 -7 0 -10
Wind_Speed
10 10 11 7 9 11 13 14 14 15 12 14 15 15 15 12 10 10 8 9 9 8 5 5 4 4 3 3 4 3 3 3 6 3 4 7 6 5 4 3 3 4 3
10 7 8 9 9 9 9 9 12 12 15 13 15 12 13 12 9 12 11 8 11 10 9 7 8 5 6 5 6 7 4 2 3 9 8 5 4 3 2 4 3 3 4
7 5 3 7 4 6 6 10 11 11 11 12 13 14 12 14 11 8 11 10 10 9 10 9 9 8 7 7 8 7 5 4 3 6 7 4 3 2 1 3 3 4 4
8 3 2 6 6 7 9 8 11 12 14 13 12 13 15 13 13 12 13 12 11 10 9 9 8 9 9 10 9 9 7 6 7 7 6 4 3 2 1 2 3 3 6
7 4 5 5 8 8 9 10 10 12 13 14 15 12 14 12 9 12 12 12 14 14 13 8 7 12 12 10 8 8 7 5 5 6 5 4 3 1 1 2 5 6 5
6 6 7 8 9 9 9 11 12 12 11 13 14 16 13 8 18 19 16 13 15 14 14 13 11 16 15 18 18 15 8 5 6 4 3 4 4 1 0 2 3 5 4
6 8 8 9 10 9 9 12 13 12 13 10 12 13 14 13 21 20 19 14 14 14 14 13 11 9 12 12 17 16 14 14 10 3 4 4 3 1 2 4 4 5 6
9 8 9 10 11 9 11 12 12 11 12 11 12 14 14 12 23 23 20 15 14 13 12 12 13 11 10 10 10 10 9 7 5 3 5 4 1 1 2 3 5 7 7
8 8 8 8 11 11 11 12 11 13 12 11 11 14 15 15 21 21 18 14 14 12 10 9 11 12 14 12 10 8 7 6 7 7 5 3 2 3 3 3 3 5 6
8 8 9 9 9 11 11 11 11 12 12 10 12 12 17 14 18 19 14 9 12 9 9 9 12 11 13 9 6 7 7 5 4 4 3 1 2 2 2 3 3 4 5
7 9 10 10 12 12 12 11 12 12 13 14 13 11 12 12 13 17 16 9 9 8 7 6 5 12 10 8 6 4 4 6 4 2 1 1 2 1 1 3 4 5 6
8 10 10 9 8 10 14 11 12 13 13 13 13 10 8 10 13 13 12 12 12 9 8 6 7 10 8 9 5 8 9 5 1 1 2 2 2 2 3 4 5 7 7
9 10 10 10 9 9 12 12 11 12 9 9 7 8 7 7 7 12 14 15 13 8 6 7 11 10 9 6 5 6 5 1 1 3 3 2 2 3 5 5 5 7 8
10 9 8 9 9 8 8 8 8 9 8 8 7 7 8 7 7 6 6 7 11 8 11 7 6 6 5 4 3 3 2 3 3 3 3 3 3 4 4 4 6 6 7
9 8 8 7 8 8 7 6 6 6 6 7 6 6 7 7 6 8 8 6 6 8 8 5 4 3 3 3 3 3 3 3 3 3 4 4 5 5 5 5 6 6 8
8 6 6 8 7 6 6 7 11 10 9 7 9 6 5 8 14 13 12 12 14 15 4 3 4 4 4 4 3 3 3 4 3 3 4 5 6 5 6 6 6 7 8
9 9 6 7 7 6 6 6 7 6 8 9 9 9 8 12 14 13 13 13 14 10 2 4 4 4 4 4 3 3 3 3 2 4 5 5 5 6 7 6 6 7 8
9 9 7 6 6 6 5 5 5 6 6 5 6 7 10 14 14 13 13 11 7 7 3 4 4 4 3 3 3 4 5 4 4 5 5 5 5 6 7 7 7 8 9
9 7 7 6 5 6 5 5 5 5 5 5 5 4 9 13 12 12 13 5 6 6 5 4 4 4 4 4 4 5 5 5 5 5 5 5 6 6 7 7 8 13 14
5 8 7 6 6 5 5 5 5 5 5 5 5 5 6 8 7 7 7 6 5 5 4 5 4 4 5 5 5 5 5 5 5 5 5 6 6 6 7 8 8 9 9
5 6 8 5 5 5 5 5 5 5 5 5 5 5 10 7 7 6 6 7 6 5 4 4 4 5 5 5 5 5 6 5 5 6 6 6 6 7 8 8 8 9 9
5 5 5 6 5 5 5 4 5 4 4 5 5 5 12 6 5 6 6 5 5 6 5 5 5 5 5 5 5 5 6 6 6 6 7 6 6 7 7 8 9 9 9
5 5 6 5 5 7 5 4 4 4 4 4 4 4 4 5 5 5 5 5 5 5 4 5 5 5 5 5 5 6 6 7 6 6 7 7 7 7 8 9 9 9 9
5 4 5 4 4 4 4 4 4 4 3 3 3 3 4 5 6 6 6 4 5 5 5 5 5 6 5 5 4 5 5 6 6 7 8 8 8 10 9 9 9 11 11
4 5 5 5 4 4 4 3 3 3 3 3 3 3 4 4 5 4 4 4 4 4 4 4 4 4 5 5 6 7 7 12 9 10 7 9 11 12 9 8 10 10 12
4 4 4 4 3 3 3 3 2 2 2 2 2 2 2 3 3 3 3 3 3 3 3 3 3 4 5 5 5 7 10 12 11 15 9 7 8 9 9 11 14 11 13
Wind_Direction
301 303 302 260 229 224 217 219 203 187 179 176 180 172 154 144 142 137 130 150 133 120 113 104 109 141 164 178 136 114 182 157 133 136 139 140 147 172 171 243 264 297 302
303 305 308 314 223 227 203 190 173 177 179 158 168 146 140 137 143 145 138 153 143 133 129 148 121 130 135 152 129 129 153 82 130 149 141 148 150 157 205 276 328 308 295
284 274 336 11 47 106 131 151 148 147 143 148 138 136 129 130 119 112 130 120 121 122 132 128 134 137 131 124 100 94 92 81 129 142 121 146 130 143 357 287 292 283 294
289 212 42 75 63 87 102 108 132 133 131 126 122 130 125 113 124 128 118 114 105 94 94 123 137 126 123 110 103 96 102 96 103 109 104 120 99 111 233 293 324 318 310
274 153 113 97 91 88 98 103 99 110 119 112 118 111 130 119 124 115 124 123 124 117 110 93 104 93 88 93 102 96 102 118 118 106 114 107 106 171 351 360 302 321 328
163 118 109 98 90 87 100 102 99 95 99 112 115 124 116 116 138 139 128 133 131 124 117 123 107 103 98 99 95 84 77 98 95 89 82 117 117 211 8 306 327 352 348
100 98 96 98 95 93 97 102 104 107 112 107 114 109 104 118 125 122 128 124 126 126 128 128 119 106 113 106 92 90 77 69 58 72 145 90 125 320 324 306 348 334 309
58 76 96 99 97 96 98 100 104 104 106 107 110 110 112 120 124 120 119 121 119 120 123 122 124 118 107 111 105 87 79 81 83 73 68 91 91 284 300 347 338 315 299
46 65 80 96 103 102 103 105 105 103 100 98 99 106 108 113 119 119 118 115 114 111 112 121 124 120 114 109 96 109 106 99 104 93 81 78 35 12 6 347 321 315 316
56 65 79 86 93 100 104 104 98 95 100 102 89 89 108 116 116 112 112 113 114 115 112 116 118 114 108 115 126 126 132 128 137 181 201 124 20 42 356 281 297 291 305
72 82 84 93 100 96 92 92 99 99 95 94 98 108 106 113 120 121 123 125 127 124 125 128 115 120 123 120 116 109 113 138 147 217 285 6 350 326 296 282 286 278 283
84 85 90 94 96 100 100 99 103 102 107 114 113 104 104 110 116 122 128 128 133 133 131 134 119 116 126 126 119 133 134 139 175 343 328 302 310 322 312 311 298 290 281
87 87 89 92 95 101 107 113 107 115 117 116 113 113 113 116 123 136 140 137 132 109 109 120 130 132 126 125 124 138 148 207 269 260 267 286 310 313 317 297 293 289 282
102 99 98 98 99 97 102 113 121 125 124 128 131 130 135 138 141 147 141 126 121 116 134 128 121 109 102 126 141 171 220 235 252 268 289 304 323 313 304 293 294 300 290
107 109 108 106 103 105 95 106 119 114 139 143 145 144 148 156 162 152 145 139 141 145 131 121 125 148 171 183 192 207 220 231 250 281 294 299 301 298 295 296 290 292 287
121 116 122 124 122 111 105 92 81 97 103 101 134 142 144 137 153 156 154 152 152 150 137 152 175 191 198 198 206 217 227 238 244 268 291 288 282 284 293 291 283 284 292
136 133 124 125 123 128 130 121 113 68 82 130 141 141 149 153 158 159 160 161 160 156 170 184 194 197 204 206 213 223 250 243 239 254 262 267 279 275 290 292 294 297 297
139 142 144 144 140 140 138 145 147 149 146 138 158 155 167 165 169 171 164 159 175 200 215 203 207 206 215 224 224 232 233 230 233 248 253 266 285 289 288 285 293 296 292
149 152 149 142 148 151 146 144 141 141 143 141 146 173 176 173 173 175 178 191 200 208 215 219 217 219 224 228 236 238 237 236 242 252 266 286 287 280 283 288 287 288 285
164 144 150 154 154 156 158 158 161 162 160 165 171 169 160 166 182 191 200 209 218 223 221 231 230 229 231 230 230 234 241 244 249 252 267 279 280 281 284 285 280 281 282
161 163 163 160 168 169 170 176 175 169 174 181 187 180 182 189 198 207 211 217 225 232 232 233 234 229 228 230 235 241 246 255 254 257 266 281 272 269 278 275 278 279 279
142 147 166 179 167 170 175 172 175 176 181 189 192 194 201 212 217 222 226 228 232 232 228 229 233 234 231 226 230 242 250 252 251 246 257 269 268 273 275 276 275 276 276
141 147 169 171 168 164 167 171 176 186 196 203 202 195 201 219 230 235 240 242 236 239 234 229 235 238 235 230 228 234 245 251 254 255 261 277 276 273 271 269 271 273 275
139 145 160 154 157 159 164 175 186 193 198 211 218 225 229 234 241 242 244 241 237 236 234 232 231 236 238 241 252 250 250 253 255 254 260 265 266 272 268 264 269 275 279
128 144 148 152 154 160 159 169 183 192 196 200 210 215 228 232 240 245 249 249 253 262 263 262 259 268 272 266 262 266 268 266 252 249 257 252 255 263 266 270 272 274 272
116 115 116 125 132 140 154 158 174 182 210 228 244 265 272 282 295 298 296 292 292 294 298 297 304 307 295 287 277 274 276 279 276 285 288 282 278 272 271 276 276 271 273